FW4251 Weather Reports


Display with metric or nautical units.
time (UTC)temp
F
wind
direction
speed
MPH
gust
MPH
rain 1hr
in
rain 24hr
in
rain mn
in
humidity
%
barometer
mb
20210925131508 56 201 2.0 4.0 0.00 0.00 0.00 94 1018.5
20210925131021 55 212 1.0 3.0 0.00 0.00 0.00 95 1018.4
20210925130504 55 212 2.0 4.0 0.00 0.00 0.00 95 1018.4
20210925130006 54 227 2.0 4.0 0.00 0.00 0.00 96 1018.3
20210925125502 54 229 1.0 3.0 0.00 0.00 0.00 96 1018.3
20210925125009 54 228 0.0 3.0 0.00 0.00 0.00 96 1018.4
20210925124502 53 228 0.0 4.0 0.00 0.00 0.00 97 1018.4
20210925124100 53 229 2.0 4.0 0.00 0.00 0.00 97 1018.4
20210925123608 52 192 1.0 3.0 0.00 0.00 0.00 97 1018.4
20210925123152 52 221 2.0 3.0 0.00 0.00 0.00 97 1018.3
20210925122602 52 221 1.0 3.0 0.00 0.00 0.00 97 1018.2
20210925122100 51 222 1.0 3.0 0.00 0.00 0.00 97 1018.4
20210925121647 51 227 0.0 2.0 0.00 0.00 0.00 97 1018.5
20210925121059 51 227 0.0 3.0 0.00 0.00 0.00 97 1018.4
20210925120559 50 227 0.0 3.0 0.00 0.00 0.00 97 1018.4
20210925120222 50 228 0.0 4.0 0.00 0.00 0.00 97 1018.5
20210925115558 50 225 2.0 4.0 0.00 0.00 0.00 97 1018.6
20210925115135 50 211 2.0 4.0 0.00 0.00 0.00 97 1018.6
20210925114647 50 217 1.0 5.0 0.00 0.00 0.00 97 1018.6
20210925113558 49 209 0.0 3.0 0.00 0.00 0.00 97 1018.6
20210925113158 49 208 1.0 3.0 0.00 0.00 0.00 97 1018.6
20210925112556 49 211 1.0 4.0 0.00 0.00 0.00 97 1018.6
20210925112104 49 209 1.0 4.0 0.00 0.00 0.00 97 1018.7
20210925111632 49 185 1.0 3.0 0.00 0.00 0.00 97 1018.6
20210925111055 49 185 1.0 3.0 0.00 0.00 0.00 97 1018.7
20210925110641 49 179 1.0 3.0 0.00 0.00 0.00 97 1018.6
20210925110156 49 177 1.0 3.0 0.00 0.00 0.00 97 1018.4
20210925105619 49 179 1.0 3.0 0.00 0.00 0.00 97 1018.4
20210925105054 49 175 0.0 3.0 0.00 0.00 0.00 97 1018.5
20210925104640 49 175 1.0 3.0 0.00 0.00 0.00 97 1018.5
20210925104059 49 172 1.0 3.0 0.00 0.00 0.00 97 1018.5
20210925103553 49 217 1.0 2.0 0.00 0.00 0.00 96 1018.5
20210925103136 49 214 1.0 2.0 0.00 0.00 0.00 96 1018.5
20210925102600 49 215 1.0 2.0 0.00 0.00 0.00 96 1018.5
20210925102051 49 215 0.0 3.0 0.00 0.00 0.00 97 1018.5
20210925101709 49 215 1.0 3.0 0.00 0.00 0.00 97 1018.4
20210925101101 49 213 1.0 3.0 0.00 0.00 0.00 97 1018.4
20210925100550 49 217 2.0 4.0 0.00 0.00 0.00 96 1018.3
20210925100146 49 184 1.0 3.0 0.00 0.00 0.00 96 1018.3
20210925095555 49 195 1.0 5.0 0.00 0.00 0.00 96 1018.3
20210925095118 49 210 1.0 5.0 0.00 0.00 0.00 96 1018.4
20210925094618 49 198 1.0 4.0 0.00 0.00 0.00 96 1018.4
20210925094048 49 196 2.0 4.0 0.00 0.00 0.00 96 1018.4
20210925093605 49 182 1.0 4.0 0.00 0.00 0.00 97 1018.3
20210925093154 50 180 2.0 4.0 0.00 0.00 0.00 97 1018.3
20210925092607 50 171 1.0 4.0 0.00 0.00 0.00 97 1018.2
20210925092052 50 179 2.0 3.0 0.00 0.00 0.00 96 1018.3
20210925091601 50 177 2.0 5.0 0.00 0.00 0.00 96 1018.3
20210925091046 50 207 2.0 5.0 0.00 0.00 0.00 96 1018.3
20210925090546 50 199 2.0 5.0 0.00 0.00 0.00 96 1018.3
20210925090053 50 186 2.0 4.0 0.00 0.00 0.00 97 1018.3
20210925085547 50 191 1.0 3.0 0.00 0.07 0.00 97 1018.3
20210925085057 49 194 0.0 2.0 0.00 0.07 0.00 96 1018.3
20210925084554 50 194 0.0 1.0 0.00 0.07 0.00 96 1018.3
20210925084042 50 194 0.0 1.0 0.00 0.07 0.00 96 1018.3
20210925083558 50 194 0.0 1.0 0.00 0.07 0.00 96 1018.3
20210925083053 50 194 0.0 1.0 0.00 0.07 0.00 96 1018.4
20210925082541 50 194 0.0 2.0 0.00 0.07 0.00 96 1018.4
20210925082042 50 194 0.0 4.0 0.00 0.07 0.00 96 1018.4
20210925081616 50 192 1.0 4.0 0.00 0.07 0.00 96 1018.4
20210925081043 50 192 1.0 3.0 0.00 0.07 0.00 96 1018.6
20210925080539 51 192 1.0 5.0 0.00 0.07 0.00 96 1018.6
20210925080059 51 184 2.0 5.0 0.00 0.07 0.00 96 1018.5
20210925075554 51 192 2.0 5.0 0.00 0.21 0.00 96 1018.5
20210925075057 51 183 2.0 5.0 0.00 0.21 0.00 96 1018.5
20210925074620 51 182 1.0 4.0 0.00 0.21 0.00 96 1018.5
20210925074045 51 218 2.0 4.0 0.00 0.21 0.00 96 1018.5
20210925073536 51 205 1.0 4.0 0.00 0.21 0.00 96 1018.6
20210925073118 51 194 1.0 4.0 0.00 0.21 0.00 96 1018.7
20210925072538 51 229 0.0 4.0 0.00 0.21 0.00 96 1018.7
20210925072035 51 205 2.0 4.0 0.00 0.21 0.00 96 1018.8
20210925071552 51 202 1.0 4.0 0.00 0.21 0.00 96 1018.8
20210925071034 51 197 2.0 4.0 0.00 0.21 0.00 96 1018.9
20210925070536 51 200 2.0 4.0 0.00 0.21 0.00 96 1018.8
20210925070051 51 189 1.0 4.0 0.00 0.21 0.00 96 1018.7
20210925065532 51 193 2.0 3.0 0.00 0.34 0.00 96 1018.8
20210925065032 51 209 1.0 4.0 0.00 0.34 0.00 96 1018.7
20210925064646 51 208 1.0 4.0 0.00 0.34 0.00 96 1018.5
20210925064030 51 197 1.0 3.0 0.00 0.34 0.00 96 1018.4
20210925063530 51 196 1.0 3.0 0.00 0.34 0.00 96 1018.4
20210925063121 51 196 1.0 3.0 0.00 0.34 0.00 96 1018.4
20210925062602 51 195 0.0 2.0 0.00 0.34 0.00 96 1018.5
20210925062032 52 195 1.0 2.0 0.00 0.34 0.00 96 1018.4
20210925061603 52 195 1.0 3.0 0.00 0.34 0.00 96 1018.5
20210925061028 52 194 0.0 3.0 0.00 0.34 0.00 96 1018.4
20210925060528 52 193 1.0 3.0 0.00 0.34 0.00 96 1018.4
20210925060135 52 193 1.0 3.0 0.00 0.34 0.00 96 1018.5
20210925055526 52 190 1.0 3.0 0.00 0.45 0.00 96 1018.4
20210925055026 52 188 1.0 2.0 0.00 0.45 0.00 96 1018.4
20210925054531 52 188 0.0 3.0 0.00 0.45 0.00 96 1018.4
20210925054039 52 188 1.0 5.0 0.00 0.45 0.00 96 1018.3
20210925053525 52 190 2.0 5.0 0.00 0.45 0.00 96 1018.4
20210925053047 52 194 1.0 4.0 0.00 0.45 0.00 96 1018.4
20210925052523 52 192 1.0 4.0 0.00 0.45 0.00 96 1018.4
20210925052023 52 197 1.0 3.0 0.00 0.45 0.00 96 1018.3
20210925051532 52 197 1.0 3.0 0.00 0.45 0.00 96 1018.4
20210925051031 53 198 0.0 3.0 0.00 0.45 0.00 95 1018.3
20210925050522 53 198 1.0 3.0 0.00 0.45 0.00 96 1018.5
20210925050111 52 196 1.0 2.0 0.00 0.45 0.00 96 1018.4
20210925045536 53 196 0.0 2.0 0.00 0.47 0.00 95 1018.3
20210925045020 53 196 1.0 2.0 0.00 0.47 0.00 95 1018.3
20210925044542 53 198 0.0 3.0 0.00 0.47 0.00 95 1018.3
20210925044020 53 198 1.0 3.0 0.00 0.47 0.00 95 1018.4
20210925043519 53 198 0.0 2.0 0.00 0.47 0.00 95 1018.3
20210925043020 53 198 1.0 3.0 0.00 0.47 0.00 95 1018.2
20210925042520 53 198 1.0 3.0 0.00 0.47 0.00 95 1018.2
20210925042017 53 196 1.0 3.0 0.00 0.47 0.00 95 1018.2
20210925041530 53 196 1.0 4.0 0.00 0.47 0.00 95 1018.2
20210925041041 54 198 2.0 4.0 0.00 0.47 0.00 95 1018.2
20210925040526 54 195 1.0 3.0 0.00 0.47 0.00 95 1018.1
20210925040016 54 198 1.0 3.0 0.00 0.49 0.47 95 1018.1
20210925035515 54 198 1.0 3.0 0.00 0.49 0.47 95 1018.1
20210925035017 54 197 1.0 4.0 0.00 0.49 0.47 95 1017.9
20210925034535 54 197 1.0 4.0 0.00 0.49 0.47 95 1017.9
20210925034012 54 180 1.0 4.0 0.00 0.49 0.47 95 1018.1
20210925033512 54 175 2.0 4.0 0.00 0.49 0.47 94 1018.1
20210925033025 54 203 2.0 5.0 0.00 0.49 0.47 94 1018.2
20210925032514 54 180 3.0 4.0 0.00 0.49 0.47 94 1018.2
20210925032012 54 199 0.0 3.0 0.00 0.49 0.47 94 1018.3
20210925031540 54 197 1.0 5.0 0.00 0.49 0.47 94 1018.2
20210925031014 54 200 2.0 6.0 0.00 0.49 0.47 94 1018.1
20210925030513 54 196 3.0 6.0 0.00 0.49 0.47 94 1018.2
20210925030024 54 184 2.0 4.0 0.00 0.54 0.47 94 1018.0
20210925025513 54 215 1.0 3.0 0.00 0.54 0.47 94 1018.1
20210925025012 54 215 2.0 3.0 0.00 0.54 0.47 94 1018.1
20210925024531 54 216 1.0 2.0 0.00 0.54 0.47 93 1018.0
20210925024009 55 216 0.0 2.0 0.00 0.54 0.47 93 1018.1
20210925023508 55 216 0.0 3.0 0.00 0.54 0.47 93 1018.1
20210925023016 55 216 0.0 4.0 0.00 0.54 0.47 93 1018.0
20210925022507 55 214 1.0 4.0 0.00 0.54 0.47 93 1018.1
20210925022006 55 209 1.0 3.0 0.00 0.54 0.47 93 1017.9
20210925021508 55 192 1.0 4.0 0.00 0.54 0.47 93 1018.1
20210925021007 56 192 1.0 4.0 0.00 0.54 0.47 93 1018.2
20210925020511 56 191 2.0 4.0 0.00 0.54 0.47 93 1018.2
20210925020012 56 193 2.0 4.0 0.00 0.67 0.47 93 1018.2
20210925015513 56 195 1.0 3.0 0.00 0.67 0.47 92 1018.2
20210925015006 56 193 1.0 2.0 0.00 0.67 0.47 92 1018.2
20210925014510 56 194 1.0 2.0 0.00 0.67 0.47 92 1018.1
20210925014006 56 194 1.0 2.0 0.00 0.67 0.47 91 1018.2
20210925013505 56 194 0.0 1.0 0.00 0.67 0.47 91 1018.2
20210925013006 56 194 0.0 1.0 0.00 0.67 0.47 91 1018.1
20210925012505 56 194 0.0 2.0 0.00 0.67 0.47 91 1018.2
20210925012004 56 194 1.0 2.0 0.00 0.67 0.47 91 1018.2
20210925011516 56 194 0.0 2.0 0.00 0.67 0.47 90 1018.2
20210925011004 57 194 0.0 1.0 0.00 0.67 0.47 90 1018.1
20210925010503 57 194 0.0 2.0 0.00 0.67 0.47 90 1018.1
20210925010034 57 194 1.0 2.0 0.00 1.32 0.47 89 1018.1
20210925005503 57 194 0.0 1.0 0.00 1.32 0.47 89 1018.1
20210925005010 57 194 0.0 1.0 0.00 1.32 0.47 89 1018.0
20210925004503 57 194 0.0 2.0 0.00 1.32 0.47 89 1018.0
20210925004002 57 194 0.0 2.0 0.00 1.32 0.47 88 1018.0
20210925003520 58 194 0.0 2.0 0.00 1.32 0.47 88 1018.1
20210925003001 58 194 1.0 2.0 0.00 1.32 0.47 87 1017.9
20210925002503 58 194 0.0 3.0 0.00 1.32 0.47 87 1017.9
20210925002003 58 193 1.0 3.0 0.00 1.32 0.47 86 1017.9
20210925001501 59 192 0.0 2.0 0.00 1.32 0.47 86 1017.8
20210925001059 58 192 0.0 2.0 0.00 1.32 0.47 86 1017.9
20210925000618 59 192 0.0 3.0 0.00 1.32 0.47 85 1017.7
20210925000227 59 192 0.0 5.0 0.00 1.32 0.47 85 1017.7
20210924235634 60 219 2.0 5.0 0.00 1.62 0.47 83 1017.6
20210924235108 59 220 0.0 1.0 0.00 1.62 0.47 83 1017.7
20210924234707 60 220 0.0 0.0 0.00 1.62 0.47 82 1017.7
20210924234123 60 220 0.0 3.0 0.00 1.62 0.47 81 1017.5
20210924233556 61 220 1.0 4.0 0.00 1.62 0.47 79 1017.6
20210924233123 61 216 2.0 4.0 0.00 1.62 0.47 78 1017.3
20210924232555 61 219 2.0 3.0 0.00 1.62 0.47 77 1017.2
20210924232110 62 222 1.0 4.0 0.00 1.62 0.47 75 1017.1
20210924231613 63 226 2.0 4.0 0.00 1.62 0.47 74 1017.0
20210924231055 63 228 2.0 5.0 0.00 1.62 0.47 73 1017.0
20210924230604 63 191 1.0 5.0 0.00 1.62 0.47 73 1017.0
20210924230148 63 188 2.0 5.0 0.00 1.62 0.47 72 1016.9
20210924225558 63 198 2.0 5.0 0.00 1.63 0.47 72 1017.0
20210924225054 64 214 1.0 6.0 0.00 1.63 0.47 72 1016.8
20210924224700 64 172 2.0 6.0 0.00 1.63 0.47 71 1016.9
20210924224053 64 198 1.0 5.0 0.00 1.63 0.47 71 1016.8
20210924223605 65 234 2.0 5.0 0.00 1.63 0.47 71 1016.8
20210924223122 65 184 2.0 4.0 0.00 1.63 0.47 69 1016.8
20210924222554 65 190 2.0 7.0 0.00 1.63 0.47 68 1016.8
20210924222053 66 200 3.0 7.0 0.00 1.63 0.47 67 1016.7
20210924221705 66 200 3.0 6.0 0.00 1.63 0.47 67 1016.7
20210924221110 66 192 2.0 7.0 0.00 1.63 0.47 66 1016.8
20210924220605 67 195 3.0 8.0 0.00 1.63 0.47 65 1016.8
20210924220136 67 182 3.0 6.0 0.00 1.63 0.47 64 1016.6
20210924215629 67 184 3.0 8.0 0.00 1.63 0.47 63 1016.6
20210924215107 67 166 4.0 8.0 0.00 1.63 0.47 63 1016.6
20210924214630 68 178 4.0 9.0 0.00 1.63 0.47 63 1016.6
20210924213556 68 186 3.0 9.0 0.00 1.63 0.47 61 1016.5
20210924213112 69 172 3.0 9.0 0.00 1.63 0.47 61 1016.5
20210924212634 69 185 2.0 11.0 0.00 1.63 0.47 61 1016.5
20210924212051 69 200 4.0 11.0 0.00 1.63 0.47 59 1016.4
20210924211607 69 202 3.0 12.0 0.00 1.63 0.47 60 1016.3
20210924211051 70 243 4.0 12.0 0.00 1.63 0.47 56 1016.3
20210924210554 70 236 3.0 11.0 0.00 1.63 0.47 58 1016.2
20210924210101 71 242 3.0 11.0 0.00 1.63 0.47 57 1016.2
20210924205550 71 238 4.0 8.0 0.00 1.63 0.47 55 1016.1
20210924205050 71 198 2.0 11.0 0.00 1.63 0.47 57 1016.2
20210924204703 71 164 3.0 11.0 0.00 1.63 0.47 55 1016.2
20210924204049 71 193 5.0 12.0 0.00 1.63 0.47 55 1016.2
20210924203549 71 159 4.0 12.0 0.00 1.63 0.47 55 1016.1
20210924203121 72 162 5.0 9.0 0.00 1.63 0.47 54 1016.1
20210924202548 72 211 4.0 9.0 0.00 1.63 0.47 52 1016.2
20210924202047 72 238 4.0 9.0 0.00 1.63 0.47 52 1016.1
20210924201715 72 167 6.0 11.0 0.00 1.63 0.47 52 1016.0
20210924201046 72 163 5.0 11.0 0.00 1.63 0.47 53 1016.1
20210924200545 72 209 4.0 11.0 0.00 1.63 0.47 51 1016.2
20210924200122 72 192 3.0 10.0 0.00 1.63 0.47 53 1016.1
20210924195544 71 161 5.0 10.0 0.00 1.63 0.47 52 1016.0
20210924195044 72 176 5.0 11.0 0.00 1.63 0.47 51 1016.1
20210924194633 71 169 6.0 11.0 0.00 1.63 0.47 52 1016.1
20210924194043 72 230 2.0 10.0 0.00 1.63 0.47 54 1016.1
20210924193550 72 268 3.0 9.0 0.00 1.63 0.47 50 1016.1
20210924193140 72 187 4.0 9.0 0.00 1.63 0.47 52 1016.0
20210924192542 72 233 3.0 16.0 0.00 1.63 0.47 54 1016.0
20210924192045 71 254 6.0 16.0 0.00 1.63 0.47 53 1015.9
20210924191610 71 206 3.0 10.0 0.00 1.63 0.47 56 1015.9
20210924191040 71 220 7.0 11.0 0.00 1.63 0.47 51 1015.9
20210924190547 71 232 6.0 11.0 0.00 1.63 0.47 53 1015.9
20210924190104 71 211 3.0 18.0 0.00 1.63 0.47 53 1015.9
20210924185540 71 148 5.0 18.0 0.00 1.63 0.47 56 1016.0
20210924185105 71 190 6.0 12.0 0.00 1.63 0.47 56 1015.9
20210924184636 71 215 4.0 10.0 0.00 1.63 0.47 59 1015.9
20210924184036 70 227 5.0 12.0 0.00 1.63 0.47 57 1015.9
20210924183536 70 205 7.0 12.0 0.00 1.63 0.47 55 1016.0
20210924183048 71 226 4.0 11.0 0.00 1.63 0.47 57 1016.0
20210924182545 70 229 7.0 15.0 0.00 1.63 0.47 53 1016.1
20210924182036 71 198 6.0 15.0 0.00 1.63 0.47 54 1016.1
20210924181553 71 216 4.0 11.0 0.00 1.63 0.47 59 1015.9
20210924181054 70 198 3.0 11.0 0.00 1.63 0.47 58 1015.9
20210924180605 71 171 4.0 11.0 0.00 1.63 0.47 55 1016.0
20210924180123 71 184 3.0 8.0 0.00 1.63 0.47 56 1016.1
20210924175530 71 191 3.0 11.0 0.00 1.63 0.47 57 1016.0
20210924175028 70 237 6.0 12.0 0.00 1.63 0.47 56 1016.2
20210924174537 70 212 3.0 13.0 0.00 1.63 0.47 61 1016.1
20210924174042 70 202 6.0 15.0 0.00 1.63 0.47 56 1016.3
20210924173526 69 179 7.0 15.0 0.00 1.63 0.47 58 1016.3
20210924173035 70 234 7.0 15.0 0.00 1.63 0.47 60 1016.2
20210924172528 69 236 5.0 13.0 0.00 1.63 0.47 61 1016.2
20210924172024 69 217 4.0 16.0 0.00 1.63 0.47 63 1016.2
20210924171549 69 151 5.0 11.0 0.00 1.63 0.47 60 1016.3
20210924171022 69 223 5.0 11.0 0.00 1.63 0.47 59 1016.4
20210924170524 69 194 5.0 10.0 0.00 1.63 0.47 57 1016.4
20210924170022 69 185 5.0 8.0 0.00 1.64 0.47 62 1016.3
20210924165549 69 161 3.0 10.0 0.00 1.64 0.47 66 1016.5
20210924165024 68 170 3.0 13.0 0.00 1.64 0.47 62 1016.4
20210924164535 68 248 8.0 13.0 0.00 1.64 0.47 63 1016.4
20210924164036 68 197 5.0 16.0 0.00 1.64 0.47 64 1016.4
20210924163517 68 169 4.0 11.0 0.00 1.64 0.47 65 1016.4
20210924163018 68 186 4.0 14.0 0.00 1.64 0.47 67 1016.4
20210924162527 67 229 6.0 14.0 0.00 1.64 0.47 66 1016.4
20210924162032 68 150 3.0 11.0 0.00 1.64 0.47 69 1016.5
20210924161518 68 224 4.0 8.0 0.00 1.64 0.47 69 1016.4
20210924161012 67 147 4.0 11.0 0.00 1.64 0.47 70 1016.4
20210924160514 67 209 5.0 11.0 0.00 1.64 0.47 69 1016.4
20210924160027 67 178 4.0 10.0 0.00 1.65 0.47 71 1016.4
20210924155511 67 219 5.0 9.0 0.00 1.65 0.47 71 1016.5
20210924155011 67 213 3.0 9.0 0.00 1.65 0.47 72 1016.5
20210924154518 67 184 4.0 10.0 0.00 1.65 0.47 71 1016.6
20210924154014 66 188 2.0 10.0 0.00 1.65 0.47 74 1016.6
20210924153508 66 209 5.0 10.0 0.00 1.65 0.47 70 1016.6
20210924153016 66 175 5.0 10.0 0.00 1.65 0.47 73 1016.6
20210924152505 65 185 5.0 11.0 0.00 1.65 0.47 73 1016.6
20210924152007 65 229 6.0 11.0 0.00 1.65 0.47 71 1016.6
20210924151505 65 214 4.0 10.0 0.00 1.65 0.47 76 1016.6
20210924151008 65 167 4.0 12.0 0.00 1.65 0.47 76 1016.7
20210924150503 64 163 6.0 11.0 0.00 1.65 0.47 72 1016.7
20210924150011 64 228 3.0 13.0 0.00 1.65 0.47 76 1016.7
20210924145505 64 229 5.0 11.0 0.00 1.65 0.47 77 1016.7
20210924145005 64 228 4.0 9.0 0.00 1.65 0.47 79 1016.7
20210924144642 64 240 4.0 9.0 0.00 1.65 0.47 76 1016.8
20210924144059 64 198 5.0 9.0 0.00 1.65 0.47 77 1016.8
20210924143605 63 233 5.0 10.0 0.00 1.65 0.47 78 1016.8
20210924143213 64 175 1.0 7.0 0.00 1.65 0.47 84 1016.8
20210924142558 62 236 2.0 9.0 0.00 1.65 0.47 83 1016.9
20210924142057 62 227 4.0 9.0 0.00 1.65 0.47 82 1017.0
20210924141810 63 170 3.0 9.0 0.00 1.65 0.47 87 1017.1
20210924141057 62 232 4.0 9.0 0.00 1.65 0.47 87 1017.0
20210924140556 62 186 2.0 6.0 0.00 1.65 0.47 90 1016.9
20210924140240 61 205 3.0 7.0 0.00 1.65 0.47 91 1017.1
20210924135554 60 235 2.0 7.0 0.00 1.65 0.47 93 1017.1
20210924135053 59 195 4.0 7.0 0.00 1.65 0.47 94 1017.0
20210924134631 58 227 2.0 6.0 0.00 1.65 0.47 96 1017.1
20210924134052 57 212 3.0 5.0 0.00 1.65 0.47 97 1017.1
20210924133553 57 209 1.0 4.0 0.00 1.65 0.47 97 1017.1
20210924133142 57 155 2.0 5.0 0.00 1.65 0.47 97 1017.1
20210924132606 57 146 1.0 4.0 0.00 1.65 0.47 97 1017.1
20210924132052 56 205 2.0 8.0 0.00 1.65 0.47 97 1017.1